Starlink 4436

operational
NORAD ID: 53479 Int'l Des: 2022-099 Owner: SPXS Country: US Constellation: starlink
LEOCIRCULARRETROGRADESSO

About Starlink 4436

Description loading...

Live Position

Loading 3D Globe...

Upcoming Passes

Altitude History

Altitude vs Time

uPlot chart will show altitude changes over time

Two-Line Element Set

1 53479U 22099Q 25352.29120941 .00000305 00000-0 25307-4 0 9994
2 53479 97.6013 111.0547 0000868 93.8484 266.2842 15.05657484183808
Epoch: Dec 18, 2025 • Age: 9 hours

Current Status

Altitude 557.5 km
Velocity 7.58 km/s
Sub-Earth Point -20.41°S, 36.69°W
Launch Date Aug 12, 2022
Age 3.3 years
Type internet

Technical Details

Classification Payload
Mass 300.00 kg
Dry Mass 275.00 kg
Total Mass 300.00 kg
Length 0.20 m
Diameter 2.80 m
Span 9.00 m
Shape Box + pan
Manufacturer SPXS
Bus Type Starlink
Phase Status In Orbit
Owner/State SPXS/US

Large Constellations

Loading constellations...